Tracking 31027 objects as of 19-Jul-2025
HD Live streaming from Space Station
objects crossing your sky now

NOAA 16 DEB

Track NOAA 16 DEB now!
10-day predictions


NORAD ID: 41066
Int'l Code: 2000-055Z
Perigee: 819.2 km
Apogee: 844.0 km
Inclination: 98.7 °
Period: 101.4 minutes
Semi major axis: 7202 km
RCS: Unknown
Launch date: September 21, 2000
Source: United States (US)
Launch site: AIR FORCE WESTERN TEST RANGE (AFWTR)

Note: This is SATELLITE DEBRIS
Your satellite tracking list
NOAA 16 DEB
Track 1 satellite(s)




NASA's NSSDC Master Catalog

Two Line Element Set (TLE):
1 41066U 00055Z   25199.71427562  .00000656  00000-0  32663-3 0  9997
2 41066  98.6884 280.2878 0017225 141.9440 218.2957 14.20270519498687
Source of the keplerian elements: AFSPC